This is the latest recevied weather packets stored in our database for station/object BARLOW-WX. If no packets are shown the sender has not sent any weather packets the latest 10 day(s).
| Time | Temp. | Humidity | Pressure | Rain* | Wind** | Luminosity | Snow |
|---|---|---|---|---|---|---|---|
| 1787908585 | 12.22° C | 85% | 991.8 hPa | 0 mm | - | - | - |
| 1787907678 | 12.22° C | 85% | 991.8 hPa | 0 mm | - | - | - |
| 1787907087 | 12.22° C | 86% | 990.5 hPa | 0 mm | - | - | - |
| 1787905885 | 12.78° C | 77% | 990.4 hPa | 0 mm | - | - | - |
| 1787904983 | 12.78° C | 77% | 990.5 hPa | 0 mm | - | - | - |
| 1787904080 | 13.33° C | 77% | 990.5 hPa | 0 mm | - | - | - |
| 1787903177 | 13.33° C | 77% | 990.1 hPa | 0 mm | - | - | - |
| 1787902284 | 13.33° C | 77% | 990.1 hPa | 0 mm | - | - | - |
| 1787901378 | 13.89° C | 77% | 990.1 hPa | 0 mm | - | - | - |
| 1787900486 | 13.89° C | 79% | 990.2 hPa | 0 mm | - | - | - |
| 1787899583 | 14.44° C | 79% | 989.8 hPa | 0 mm | - | - | - |
| 1787898684 | 14.44° C | 79% | 989.8 hPa | 0 mm | - | - | - |
| 1787897777 | 14.44° C | 79% | 989.8 hPa | 0 mm | - | - | - |
| 1787896884 | 15° C | 79% | 989.8 hPa | 0 mm | - | - | - |
| 1787895984 | 15° C | 78% | 989.4 hPa | 0 mm | - | - | - |
| 1787895077 | 15° C | 73% | 989.6 hPa | 0 mm | - | - | - |
| 1787894180 | 15.56° C | 73% | 989.6 hPa | 0 mm | - | - | - |
| 1787893283 | 15.56° C | 73% | 989.6 hPa | 0 mm | - | - | - |
| 1787892377 | 15.56° C | 75% | 989.3 hPa | 0 mm | - | - | - |
| 1787891792 | 15.56° C | 75% | 989.4 hPa | 0 mm | - | - | - |
| 1787890577 | 16.67° C | 75% | 989.4 hPa | 0 mm | - | - | - |
| 1787889683 | 16.67° C | 75% | 989.4 hPa | 0 mm | - | - | - |
| 1787888783 | 16.67° C | 79% | 989.3 hPa | 0 mm | - | - | - |
| 1787887879 | 16.67° C | 79% | 989.3 hPa | 0 mm | - | - | - |
| 1787886977 | 17.22° C | 83% | 989.6 hPa | 0 mm | - | - | - |
* Rain latest hour (hover to see other rain measurements)
** Current wind speed in m/s (hover to see current wind gust speed)